This demonstration page uses our WeatherBlox Daily Observations layout. Learn more.

Hourly Observations for August 2, 2017

Temp ( °F °C ) Dew Point ( °F °C ) Humidity (%) Winds ( mph kmh ) Pressure ( in mb ) Visibility ( mi km ) Precip ( " mm )
12:15 am 00:15 Clear 65 18.6 60 15.6 83 83 Calm 30.09 1019 10 16.09344 0 0
12:35 am 00:35 Clear 65 18.5 60 15.8 84 84 Calm 30.09 1019 10 16.09344 0 0
12:55 am 00:55 Clear 66 18.7 60 15.7 83 83 Calm 30.09 1019 10 16.09344 0 0
1:15 am 01:15 Clear 65 18.1 61 16.1 88 88 NE 6 9 30.09 1019 10 16.09344 0 0
1:35 am 01:35 Clear 64 17.7 61 16 90 90 N 3 6 30.12 1020 10 16.09344 0 0
1:55 am 01:55 Clear 64 17.5 61 16 91 91 Calm 30.12 1020 10 16.09344 0 0
2:15 am 02:15 Clear 63 17.2 61 15.9 92 92 Calm 30.12 1020 10 16.09344 0 0
2:35 am 02:35 Clear 62 16.7 59 15.2 91 91 Calm 30.12 1020 10 16.09344 0 0
2:55 am 02:55 Clear 62 16.6 60 15.4 93 93 Calm 30.12 1020 10 16.09344 0 0
3:15 am 03:15 Clear 61 16 59 14.9 93 93 Calm 30.12 1020 10 16.09344 0 0
3:35 am 03:35 Clear 61 16 59 15 94 94 Calm 30.12 1020 10 16.09344 0 0
3:55 am 03:55 Clear 60 15.3 58 14.3 94 94 Calm 30.12 1020 7 11.265408 0 0
4:15 am 04:15 Clear 61 16.1 59 15.1 94 94 NNE 3 6 30.12 1020 10 16.09344 0 0
4:35 am 04:35 Clear 60 15.3 57 14.1 93 93 Calm 30.12 1020 10 16.09344 0 0
4:55 am 04:55 Clear 59 15 57 14 94 94 Calm 30.15 1021 10 16.09344 0 0
5:15 am 05:15 Clear 59 14.9 57 13.9 94 94 Calm 30.18 1022 10 16.09344 0 0
5:35 am 05:35 Clear 58 14.5 56 13.5 94 94 Calm 30.15 1021 10 16.09344 0 0
5:55 am 05:55 Clear 58 14.3 56 13.3 94 94 W 3 6 30.18 1022 10 16.09344 0 0
6:15 am 06:15 Clear 59 14.9 57 14 94 94 Calm 30.18 1022 10 16.09344 0 0
6:35 am 06:35 Clear 59 14.8 57 13.8 94 94 Calm 30.18 1022 10 16.09344 0 0
6:55 am 06:55 Sunny 59 15.1 57 14.1 94 94 WNW 10 17 30.15 1021 10 16.09344 0 0
7:15 am 07:15 Sunny 60 15.8 57 14.1 90 90 WNW 9 15 30.15 1021 10 16.09344 0 0
7:35 am 07:35 Sunny 61 16 58 14.2 89 89 WNW 8 13 30.15 1021 10 16.09344 0 0
7:55 am 07:55 Sunny 62 16.6 58 14.7 89 89 NW 5 7 30.12 1020 10 16.09344 0 0
8:15 am 08:15 Sunny 63 17.3 58 14.7 85 85 WNW 3 6 30.12 1020 10 16.09344 0 0
8:35 am 08:35 Sunny 64 18 60 15.5 85 85 WNW 7 11 30.15 1021 10 16.09344 0 0
8:55 am 08:55 Sunny 66 19 61 16 83 83 WNW 8 13 30.12 1020 10 16.09344 0 0
9:15 am 09:15 Sunny 68 19.9 61 16.3 80 80 NW 5 7 30.12 1020 10 16.09344 0 0
9:35 am 09:35 Sunny 70 21.3 62 16.7 75 75 NW 5 7 30.12 1020 10 16.09344 0 0
9:55 am 09:55 Sunny 72 22.2 62 16.6 71 71 WNW 5 7 30.09 1019 10 16.09344 0 0
10:15 am 10:15 Sunny 74 23.1 62 16.8 68 68 NNW 5 7 30.09 1019 10 16.09344 0 0
10:35 am 10:35 Sunny 75 23.7 61 16.2 63 63 NW 3 6 30.06 1018 10 16.09344 0 0
10:55 am 10:55 Sunny 76 24.3 61 16.1 60 60 Calm 30.06 1018 10 16.09344 0 0
11:15 am 11:15 Sunny 76 24.7 58 14.4 53 53 Calm 30.06 1018 10 16.09344 0 0
11:35 am 11:35 Sunny 79 25.9 61 16 54 54 ENE 5 7 30 1016 10 16.09344 0 0
11:55 am 11:55 Sunny 78 25.3 59 15.2 54 54 NNE 3 6 30.03 1017 10 16.09344 0 0
12:15 pm 12:15 Sunny 78 25.3 60 15.3 54 54 Calm 30.03 1017 10 16.09344 0 0
12:35 pm 12:35 Sunny 77 25.1 62 16.5 59 59 S 3 6 30 1016 10 16.09344 0 0
12:55 pm 12:55 Sunny 78 25.6 61 15.9 55 55 SSE 8 13 30 1016 10 16.09344 0 0
1:15 pm 13:15 Sunny 80 26.9 61 16.1 52 52 SSE 9 15 29.97 1015 10 16.09344 0 0
1:35 pm 13:35 Sunny 81 27.2 60 15.8 50 50 SSE 12 19 29.97 1015 10 16.09344 0 0
1:55 pm 13:55 Sunny 81 27.2 60 15.7 49 49 SSE 8 13 29.97 1015 10 16.09344 0 0
2:15 pm 14:15 Sunny 80 26.6 61 16 52 52 S 5 7 29.97 1015 10 16.09344 0 0
2:35 pm 14:35 Sunny 80 26.6 62 16.4 54 54 SSE 5 7 29.97 1015 10 16.09344 0 0
2:55 pm 14:55 Sunny 81 27 61 16.3 52 52 S 3 6 29.97 1015 10 16.09344 0 0
3:15 pm 15:15 Partly Cloudy 80 26.9 62 16.4 53 53 Calm 29.97 1015 10 16.09344 0 0
3:35 pm 15:35 Partly Cloudy 81 27 59 15.2 48 48 Calm 29.97 1015 10 16.09344 0 0
3:55 pm 15:55 Partly Cloudy 82 27.6 60 15.7 48 48 Calm 29.97 1015 10 16.09344 0 0
4:15 pm 16:15 Partly Cloudy 82 28 62 16.5 50 50 SSE 3 6 29.94 1014 10 16.09344 0 0
4:35 pm 16:35 Sunny 83 28.5 63 17.1 50 50 SE 9 15 29.91 1013 10 16.09344 0 0
4:55 pm 16:55 Sunny 83 28.6 64 17.5 51 51 E 12 19 29.91 1013 10 16.09344 0 0
5:15 pm 17:15 Sunny 83 28.6 64 17.8 52 52 E 10 17 29.91 1013 10 16.09344 0 0
5:35 pm 17:35 Sunny 83 28.5 64 17.8 52 52 ESE 8 13 29.91 1013 10 16.09344 0 0
5:55 pm 17:55 Partly Cloudy 83 28.5 63 17.4 51 51 SSE 8 13 29.91 1013 10 16.09344 0 0
6:15 pm 18:15 Sunny 82 27.8 63 17.2 53 53 SE 7 11 29.88 1012 10 16.09344 0 0
6:35 pm 18:35 Sunny 81 27.2 65 18.1 58 58 ESE 6 9 29.94 1014 10 16.09344 0 0
6:55 pm 18:55 Sunny 81 27 65 18.4 59 59 E 7 11 29.94 1014 10 16.09344 0 0
7:15 pm 19:15 Partly Cloudy 80 26.5 66 19 63 63 E 8 13 29.94 1014 10 16.09344 0 0
7:35 pm 19:35 Sunny 79 26.3 65 18.5 62 62 ESE 7 11 29.91 1013 10 16.09344 0 0
7:55 pm 19:55 Sunny 78 25.7 66 18.9 66 66 SE 7 11 29.91 1013 10 16.09344 0 0
8:15 pm 20:15 Sunny 78 25.4 66 18.7 67 67 ESE 8 13 29.91 1013 10 16.09344 0 0
8:35 pm 20:35 Sunny 77 25 66 18.8 69 69 E 7 11 29.91 1013 10 16.09344 0 0
8:55 pm 20:55 Clear 75 23.7 67 19.2 76 76 E 8 13 29.91 1013 10 16.09344 0 0
9:15 pm 21:15 Clear 75 23.7 66 19 75 75 ESE 6 9 29.97 1015 10 16.09344 0 0
9:35 pm 21:35 Partly Cloudy 75 23.7 66 18.9 75 75 ESE 7 11 29.97 1015 10 16.09344 0 0
9:55 pm 21:55 Mostly Cloudy 74 23.6 66 18.8 75 75 SE 6 9 29.97 1015 10 16.09344 0 0
10:15 pm 22:15 Cloudy with Light Rain 74 23.4 66 19 76 76 ESE 8 13 29.94 1014 10 16.09344 0 0
10:35 pm 22:35 Windy with Storms Likely 74 23.1 66 19.1 78 78 N 20 31 30 1016 10 16.09344 0 0
10:55 pm 22:55 Windy with Storms Likely 68 19.9 61 16.2 79 79 NE 22 35 30.03 1017 10 16.09344 0.01 0.254
11:15 pm 23:15 Mostly Cloudy with Nearby Thunderstorms 69 20.4 64 17.5 84 84 E 9 15 30.03 1017 10 16.09344 0 0
11:35 pm 23:35 Cloudy with Nearby Thunderstorms 67 19.5 61 16.3 82 82 SSW 12 19 30.06 1018 10 16.09344 0 0
11:55 pm 23:55 Mostly Cloudy with Nearby Thunderstorms 67 19.7 64 17.5 87 87 SSW 6 9 30.06 1018 10 16.09344 0 0

Powered by AerisWeather